Location: Büyük Hasan
(38.9225°N, 31.8190°E)
Time: 08:41:33
(UTC+00:00)

Daily predictions for brighter satellites

Satellite Brightness Start Highest point End
(mag) Time Altitude Azimuth Time Altitude Azimuth Time Altitude Azimuth
CZ-4C R/B 4.0 17:37:36 10° NNW 17:43:59 34° NE 17:51:37 10° ESE
OAO 3 Rocket 3.4 17:40:59 10° WSW 17:45:21 48° S 17:49:44 10° E
Helios 1A Rocket 3.4 17:44:16 10° NE 17:46:53 24° E 17:49:27 10° SSE
Meteor 1-31 Rocket 2.4 17:50:03 10° SSE 17:53:26 72° ENE 17:56:51 10° N
ERS-1 Rocket 3.1 17:50:06 10° SSE 17:55:01 62° ENE 17:59:58 10° N
NOSS 2-2 (E) 3.1 17:52:13 10° SW 17:56:07 80° WNW 17:59:16 10° NNE
Cosmos 2237 Rocket 4.3 17:52:55 10° NW 17:57:20 24° W 18:01:44 10° SSW
Meteor 2-4 Rocket 4.2 17:53:03 10° SSE 17:58:20 42° E 18:03:47 10° NNE
Cosmos 1238 Rocket 3.9 17:54:12 10° SSE 17:58:38 37° E 18:03:05 10° NNE
Cosmos 1844 4.4 17:55:35 10° SSE 18:00:39 33° ESE 18:05:45 10° NE
SL-24 R/B - RUBIN 2 4.1 17:57:39 10° S 18:01:59 38° ESE 18:06:06 10° NE
SL-16 R/B 2.3 17:59:42 10° NNW 18:05:25 83° WSW 18:11:04 10° SSE
SL-08 R/B 3.4 18:07:21 10° NNE 18:11:50 53° E 18:16:17 10° S
OAO 2 Rocket 4.0 18:07:16 10° SW 18:12:01 35° SSE 18:16:45 10° E
MOS 1 4.3 18:06:46 10° SSE 18:12:28 89° ENE 18:18:12 10° NNW
Okean O Rocket 2.5 18:10:12 12° SE 18:13:41 32° ENE 18:17:34 10° N
ATLAS 2AS CENTAUR R/B 2.7 18:07:42 10° NNW 18:14:29 75° NE 18:20:44 13° SE
Cosmos 1766 Rocket 4.2 18:12:41 10° N 18:16:47 38° ENE 18:20:11 14° SE
Cosmos 2219 3.9 18:11:42 10° SW 18:17:13 58° WNW 18:22:46 10° NNE
Cosmos 1943 3.7 18:12:31 10° N 18:17:55 46° ENE 18:22:26 14° SE
FALCON 9 R/B 4.5 18:15:47 10° WSW 18:23:29 40° S 18:45:19 14° SE
Hubble Space Telescope 2.2 18:25:18 10° SW 18:27:41 16° S 18:28:25 15° SSE
BlueWalker 3 1.7 18:26:17 10° NW 18:29:49 81° SW 18:32:03 21° SE
Cosmos 1125 Rocket 3.5 18:26:47 10° NNW 18:32:02 82° WSW 18:36:36 13° SSE
CZ-4B R/B 4.5 18:33:13 15° E 18:34:54 19° ENE 18:37:43 10° NNE
CENTAUR R/B 3.9 18:34:06 10° WSW 18:39:07 40° NW 18:45:23 10° NNE
USA 186 1.9 18:41:03 31° E 18:41:22 32° ENE 18:43:30 10° N
Sich 1 4.1 18:39:10 10° NNE 18:42:55 29° ENE 18:44:41 22° ESE
Terra 2.7 18:40:32 10° S 18:45:00 45° W 18:49:31 10° NNW
Cosmos 2208 Rocket 4.1 18:47:09 10° SSW 18:52:22 80° WNW 18:57:34 10° NNE
Cosmos 44 Rocket 3.4 18:47:23 10° NNW 18:52:33 76° ENE 18:55:26 25° SE
SPOT 3 Rocket 3.9 18:53:26 24° SE 18:56:16 49° ENE 19:01:13 10° N
Cosmos 1758 4.0 18:56:10 10° NNE 18:59:34 33° ENE 19:00:22 30° ESE
NOSS 2-3 (E) 4.3 19:00:41 25° E 19:00:41 25° E 19:03:03 10° ENE
Meteor 2-20 Rocket 4.5 18:55:05 10° SSW 19:00:49 74° W 19:06:46 10° N
NOSS 3-2 (A) 3.4 19:01:35 10° SW 19:06:22 65° NW 19:12:00 10° NNE
Ariane Rocket 3.5 19:04:04 27° SE 19:06:24 46° ENE 19:11:14 10° N
Spot 2 Rocket 4.0 19:05:30 17° S 19:09:18 55° W 19:14:18 10° NNW
CZ-4 R/B 4.2 19:09:28 10° WSW 19:10:11 10° W 19:10:55 10° W
Okean-O 3.0 19:07:29 21° S 19:10:14 57° W 19:14:33 10° NNW
CZ-4B R/B 4.5 19:05:50 10° SSW 19:10:48 35° W 19:15:43 10° NNW
HBTSS-SV1 4.3 19:07:21 10° WSW 19:11:42 66° SSE 19:14:47 18° E
EXPRESS MD2 2.7 19:07:58 10° NW 19:11:54 68° NNE 19:12:24 53° E
Okean 3 Rocket 3.7 19:08:00 10° N 19:12:22 56° E 19:13:51 37° SE
Cosmos 1842 Rocket 4.3 19:14:15 12° SSW 19:18:17 51° W 19:22:37 10° N
Cosmos 1805 Rocket 4.2 19:14:50 10° N 19:18:54 39° ENE 19:19:47 35° ESE
Cosmos 1603 3.8 19:13:36 10° NNW 19:19:18 65° ENE 19:21:50 33° SE
Cosmos 1408 Rocket 4.0 19:18:55 10° N 19:23:09 45° E 19:24:04 39° ESE
Cosmos 1844 Rocket 3.8 19:18:21 10° SW 19:23:38 44° WNW 19:28:58 10° N
Cosmos 1340 Rocket 2.6 19:20:52 10° N 19:24:36 68° E 19:25:09 57° SE
Cosmos 1553 Rocket 4.0 19:22:42 28° SSE 19:26:08 65° E 19:32:25 10° NNE
USA 245 3.2 19:26:53 47° S 19:27:54 77° WSW 19:31:17 10° NNW
OAO 3 Rocket 3.3 19:23:42 10° W 19:28:05 48° S 19:28:36 45° SSE
Meteor 2-10 Rocket 4.3 19:24:29 10° NNW 19:30:09 56° W 19:33:41 22° SSW
Cosmos 1703 4.2 19:31:55 27° NE 19:31:55 27° NE 19:33:49 10° NNE
ATLAS 5 CENTAUR R/B 2.9 19:29:36 29° SSW 19:31:46 67° ESE 19:43:43 10° NE
CZ-4C R/B 3.3 19:25:17 10° NW 19:32:44 65° WSW 19:37:48 28° S
SL-14 R/B 4.3 19:31:17 21° SW 19:33:20 40° W 19:36:52 10° N
OAO 3 Copernicus 4.4 19:28:41 10° W 19:33:35 54° S 19:34:33 46° SE
Cosmos 1833 Rocket 4.3 19:34:30 10° N 19:39:00 24° NE 19:41:17 19° E
Cosmos 1151 Rocket 3.0 19:37:50 44° SSW 19:39:11 83° W 19:43:32 10° N
Cosmos 2344 3.9 19:38:57 29° SSE 19:42:32 45° ESE 19:49:20 10° NE
Cosmos 2278 Rocket 4.3 19:46:20 12° E 19:46:20 12° E 19:47:26 10° ENE
Milstar 3 Cent rocket 3.4 19:42:36 10° WSW 19:44:49 21° SSW 19:44:49 21° SSW
CZ-4B R/B 3.5 19:44:55 44° S 19:46:33 78° WSW 19:51:43 10° NNW
NOSS 3-2 (C) 2.9 19:44:16 20° SW 19:47:37 86° WNW 19:53:16 10° NNE
BREEZE-M R/B 3.4 19:48:41 53° SSE 19:49:13 56° SE 19:56:32 10° ENE
Okean O Rocket 3.7 19:47:26 13° SW 19:49:53 20° W 19:53:08 10° NW
CZ-2C R/B 3.6 19:52:29 30° N 19:52:29 30° N 19:54:03 10° N
NOSS 2-3 (C) 4.3 19:55:42 30° NE 19:55:42 30° NE 19:57:37 10° NE
Cosmos 1953 3.5 19:52:58 10° NNE 19:55:23 27° NE 19:55:23 27° NE
OAO 2 Rocket 3.4 19:51:06 10° WSW 19:56:14 56° S 19:56:18 56° S
Nadezhda 2 Rocket 4.5 19:49:53 10° N 19:56:16 90° SSW 19:58:42 41° S
Cosmos 1633 Rocket 4.5 19:57:42 10° NNE 20:01:12 25° ENE 20:01:12 25° ENE
Cosmos 1745 Rocket 4.2 19:58:38 10° N 20:04:49 57° E 20:06:25 45° SE
CZ-4B R/B 4.2 20:07:54 26° WSW 20:08:23 27° W 20:11:45 10° NW
Cosmos 1461 3.5 20:09:00 10° NW 20:11:30 39° WNW 20:11:30 39° WNW
Iridium 4 Rocket 3.7 20:15:34 48° SSW 20:17:01 70° W 20:22:14 10° N
Cosmos 1500 Rocket 4.3 20:15:21 10° NNW 20:19:26 42° W 20:19:50 41° WSW
Cosmos 1607 3.9 20:13:23 10° NNW 20:19:50 89° WSW 20:21:26 54° SSE
Cosmos 1241 Rocket 4.5 20:18:12 29° SW 20:21:31 78° WNW 20:27:46 10° NNE
ARIANE 5 R/B 4.4 20:21:50 21° ENE 20:21:57 21° ENE 20:25:19 10° NNE
Helios 1A 3.3 20:18:37 10° NNE 20:21:45 53° NE 20:21:45 53° NE
Helios 1B rocket 4.1 20:23:48 21° NE 20:23:48 21° NE 20:25:39 10° NNE
GP-B 3.9 20:19:25 10° NNW 20:23:34 43° W 20:24:14 40° WSW
Cosmos 1417 Rocket 4.4 20:21:43 49° SSW 20:23:34 84° W 20:29:54 10° N
BREEZE-M R/B 4.2 20:17:46 10° WNW 20:23:44 63° SW 20:24:58 51° S
Cosmos 2285 Rocket 4.2 20:20:17 10° NNW 20:26:32 61° WSW 20:28:11 46° SSW
Cosmos 2315 Rocket 3.9 20:28:49 58° SSE 20:30:01 73° E 20:36:14 10° N
ALOS 2 4.2 20:34:31 24° ENE 20:34:31 24° ENE 20:37:56 10° NNE
Cosmos 1943 Rocket 2.5 20:35:06 48° E 20:35:06 48° E 20:40:11 10° NE
Meteor 1-21 4.1 20:35:56 69° SE 20:36:23 73° E 20:42:00 10° NNE
Cosmos 923 Rocket 3.9 20:41:03 74° E 20:41:03 74° E 20:46:14 10° NNE
Cosmos 1328 Rocket 4.0 20:47:48 56° WNW 20:47:48 56° WNW 20:51:50 10° N
USA 215 3.2 20:50:09 52° SE 20:51:57 85° NE 20:58:30 10° NW
CZ-2C R/B 3.9 20:47:38 10° NNE 20:51:46 65° NE 20:51:46 65° NE
BREEZE-M DEB (TANK) 4.1 20:30:27 10° WNW 20:53:38 87° NNE 20:55:49 47° ESE
Lacrosse 5 rocket 2.8 20:57:41 29° N 20:57:41 29° N 20:59:56 10° NNE
Cosmos 1666 Rocket 4.3 20:56:56 10° NNW 21:00:30 47° WNW 21:00:30 47° WNW
GEOS 3 Rocket 4.0 21:04:15 52° E 21:05:03 58° NE 21:10:20 10° NNW
PSLV R/B 4.3 21:03:37 10° NNE 21:07:20 51° NE 21:07:20 51° NE
Timation 1 Rocket 4.2 21:05:15 10° NNW 21:11:15 83° ENE 21:11:42 76° SE
USA 59 Rocket 1.9 21:16:04 18° NNE 21:16:04 18° NNE 21:16:59 10° NNE
Cosmos 2184 Rocket 4.4 21:11:18 10° N 21:17:21 49° E 21:18:09 46° ESE
Cosmos 1515 Rocket 4.2 21:18:40 53° NNW 21:18:40 53° NNW 21:22:08 10° N
Spot 4 4.0 21:20:33 72° NNW 21:20:33 72° NNW 21:24:53 10° NNW
Cosmos 1833 Rocket 3.1 21:17:43 10° NW 21:22:56 49° W 21:22:56 49° W
Meteor 1-16 Rocket 4.4 21:21:13 10° NNW 21:26:39 58° W 21:26:46 57° W
Cosmos 2278 Rocket 2.1 21:28:07 77° W 21:28:21 78° WNW 21:34:02 10° NNE
Cosmos 2082 Rocket 3.3 21:23:43 10° N 21:28:50 35° ENE 21:30:04 31° E
Cosmos 1680 Rocket 4.3 21:42:32 40° W 21:43:03 41° WNW 21:47:57 10° N
Cosmos 1624 Rocket 4.1 21:42:12 10° NNW 21:47:03 72° NW 21:47:03 72° NW
CZ-2C R/B 3.0 21:43:19 10° NNE 21:48:40 84° NNW 21:48:40 84° NNW
Cosmos 1048 Rocket 4.0 21:51:12 74° NNE 21:51:12 74° NNE 21:55:59 10° NNE
USA 238 DEB 4.2 21:48:54 35° W 21:51:05 49° NW 21:57:29 10° NNE
USA 238 4.1 21:49:09 35° W 21:51:18 49° NW 21:57:42 10° NNE
Cosmos 2056 Rocket 3.8 21:49:08 10° NNW 21:53:26 57° WNW 21:53:26 57° WNW
ARIANE 5 R/B 4.1 21:59:12 29° WNW 21:59:12 29° WNW 22:02:03 10° NNW
ACS3 Solar Sail 1.9 21:54:09 10° NNE 21:59:45 52° E 21:59:49 52° E
Geosat 4.0 22:05:03 10° NNE 22:09:40 76° NNE 22:09:40 76° NNE
ALOS 2 4.3 22:11:55 24° WNW 22:11:55 24° WNW 22:14:24 10° NW
Cosmos 614 Rocket 4.1 22:12:58 67° NE 22:12:58 67° NE 22:17:30 10° NNE
Cosmos 2369 Rocket 3.3 22:13:52 31° E 22:13:52 31° E 22:18:22 10° NE
Exosat Rocket 3.7 22:17:56 79° SE 22:18:06 80° ESE 22:24:49 10° NNE
Cosmos 1943 Rocket 3.9 22:16:33 19° W 22:18:43 24° NW 22:23:14 10° N
Meteor 1-24 Rocket 4.0 22:19:30 57° ESE 22:19:54 58° E 22:25:48 10° NNE
Cosmos 2228 Rocket 4.1 22:21:12 41° ENE 22:21:12 41° ENE 22:24:31 10° NNE
Cosmos 2074 Rocket 4.4 22:19:14 10° NNW 22:25:06 45° W 22:25:27 45° W
CZ-2C R/B 2.9 22:31:43 54° WNW 22:31:43 54° WNW 22:36:19 10° NNW
Cosmos 2366 rocket 4.4 22:28:40 10° N 22:34:56 57° E 22:36:24 46° SE
Cosmos 2327 Rocket 4.3 22:31:47 10° N 22:37:55 87° E 22:38:38 72° SSE
Cosmos 2218 Rocket 4.3 22:37:28 10° N 22:43:46 61° E 22:45:18 48° SE
Cosmos 1452 Rocket 3.4 22:46:58 10° NNW 22:52:03 76° W 22:52:03 76° W
NOSS 3-1 (A) 4.3 22:53:30 24° E 22:53:30 24° E 22:57:00 10° ENE
CRYOSAT 2 4.3 22:55:25 81° NW 22:55:25 81° NW 23:00:07 10° N
Cosmos 962 Rocket 4.5 22:50:49 10° NNW 22:57:08 70° W 22:58:02 61° SW
Meteor 2-15 4.3 22:51:53 10° N 22:57:59 85° W 22:58:53 67° S
Meteor 2-13 Rocket 4.3 22:58:49 64° SW 22:59:41 74° W 23:05:51 10° N
SL-8 R/B 4.1 23:00:12 55° NW 23:00:37 57° NNW 23:05:19 10° NE
Cosmos 1703 Rocket 3.8 23:03:48 64° NE 23:03:48 64° NE 23:07:42 10° NNE
NOSS 3-1 (C) 2.7 23:04:15 79° NW 23:04:15 79° NW 23:09:22 10° NNE
PSLV R/B 4.5 23:01:50 10° NNE 23:04:50 52° NNE 23:04:50 52° NNE
Cosmos 1356 Rocket 3.8 23:07:26 10° N 23:10:51 59° NNE 23:10:51 59° NNE
Cosmos 1315 Rocket 3.8 23:08:06 10° NNW 23:10:37 39° NNW 23:10:37 39° NNW
Cosmos 2082 Rocket 3.3 23:07:54 10° NW 23:11:51 29° W 23:11:51 29° W
Cosmos 2341 Rocket 3.9 23:07:10 10° NNW 23:13:22 68° W 23:14:24 58° SW
MSX 4.2 23:09:10 10° NNE 23:14:48 54° E 23:16:10 44° SE
ATLAS 5 CENTAUR R/B 3.0 23:16:46 22° N 23:16:46 22° N 23:18:10 10° NNE
Cosmos 1818 3.6 23:23:32 58° SSE 23:24:13 64° ESE 23:29:36 10° NE
SL-8 Rocket 4.2 23:22:28 10° NNW 23:28:20 48° W 23:29:14 45° WSW
MOS 1-B Rocket 4.4 23:23:50 10° NNE 23:29:51 53° E 23:31:47 37° SSE
COSMOS 2406 3.4 23:25:50 10° NNW 23:31:17 50° WSW 23:31:27 50° WSW
SL-4 R/B 2.9 23:34:12 35° NNE 23:34:12 35° NNE 23:36:11 10° NE
Meteor 2-15 Rocket 4.5 23:29:04 10° NNW 23:35:03 60° W 23:36:20 50° SW
Cosmos 921 Rocket 4.2 23:38:47 30° ESE 23:39:31 32° E 23:43:17 10° NE
ACS3 Solar Sail 3.2 23:37:21 10° NNW 23:41:33 22° WNW 23:43:11 19° W
Cosmos 1908 Rocket 3.9 23:37:50 10° NNW 23:41:54 51° W 23:41:54 51° W
SJ 16-02 3.5 23:41:28 13° ESE 23:43:04 16° E 23:45:42 10° ENE
ARIANE 6 FM1 Upper Stage 3.5 23:43:05 38° WNW 23:43:30 40° NW 23:47:24 10° NNE
Cosmos 2297 4.2 23:44:14 40° WSW 23:45:46 50° WNW 23:51:22 10° NNE
ALOS 4.4 23:44:37 10° NE 23:47:45 18° E 23:50:26 12° SE
Lacrosse 4 Rocket 3.2 23:44:11 10° N 23:47:56 31° ENE 23:51:38 10° ESE
Cosmos 1023 Rocket 4.3 23:52:52 52° S 23:54:07 84° ESE 23:59:10 10° NNE
BREEZE-M DEB (TANK) 2.9 23:49:45 10° NW 23:54:55 48° NNE 23:57:27 10° E
